Tehachapi, CA

2:41 AM PDT on June 24, 2017 (GMT -0700)
Tehachapi Municipal

Weather History for KTSP - October, 2013

Change the Weather History Date:

Tuesday, October 29, 2013

  Actual Average Record
Temperature  
Mean Temperature 42 °F -  
Max Temperature 46 °F 63 °F 77 °F (2012)
Min Temperature 37 °F 37 °F 30 °F (2011)
Degree Days  
Heating Degree Days 24    
Moisture  
Dew Point 37 °F    
Average Humidity 84    
Maximum Humidity 100    
Minimum Humidity 66    
Precipitation  
Precipitation 0.06 in - - ()
Sea Level Pressure  
Sea Level Pressure 29.96 in    
Wind  
Wind Speed 13 mph (NW)    
Max Wind Speed 20 mph    
Max Gust Speed 23 mph    
Visibility 8 miles    
Events Rain    
Averages and records for this station are not official NWS values.
T = Trace of Precipitation, MM = Missing Value Source: NWS Daily Summary

Daily Weather History Graph

Daily Weather History Graph

Search for Another Location

Airport or City:

Trip Planner

Search our weather history database for the weather conditions in past years. The results will help you decide how hot, cold, wet, or windy it might be!

Date:

Astronomy

Oct. 29, 2013 Rise Set
Actual Time 7:12 AM PDT 6:01 PM PDT
Civil Twilight 6:46 AM PDT 6:27 PM PDT
Nautical Twilight 6:16 AM PDT 6:57 PM PDT
Astronomical Twilight 5:46 AM PDT 7:27 PM PDT
Moon 2:18 AM PDT (10/29) 3:08 PM PDT (10/29)
Length of Visible Light 11h 41m
Length of Day
10h 49m
Waning Crescent, 24% of the Moon is Illuminated
Oct 29
Waning Crescent
Nov 3
New
Nov 9
First Quarter
Nov 17
Full
Nov 25
Last Quarter

Hourly Weather History & Observations

Time (PDT) Temp. Windchill Dew Point Humidity Pressure Visibility Wind Dir Wind Speed Gust Speed Precip Events Conditions
12:15 AM 39.2 °F 34.2 °F 39.2 °F 100% 29.90 in 4.0 mi WNW 6.9 mph - N/A Rain Light Rain
12:35 AM 39.2 °F 33.6 °F 39.2 °F 100% 29.90 in 3.0 mi WNW 8.1 mph - 0.01 in Rain Light Rain
12:55 AM 39.2 °F 33.6 °F 39.2 °F 100% 29.90 in 7.0 mi NW 8.1 mph - 0.02 in   Overcast
1:15 AM 39.2 °F 33.0 °F 39.2 °F 100% 29.90 in 7.0 mi NW 9.2 mph - N/A   Overcast
1:35 AM 39.2 °F 31.2 °F 39.2 °F 100% 29.91 in 3.0 mi NW 13.8 mph 18.4 mph N/A Rain Light Rain
1:55 AM 39.2 °F 31.6 °F 39.2 °F 100% 29.91 in 4.0 mi NW 12.7 mph - 0.04 in Rain Light Rain
2:15 AM 39.2 °F 30.5 °F 39.2 °F 100% 29.90 in 7.0 mi NW 16.1 mph 20.7 mph N/A   Overcast
7:35 AM 39.2 °F 31.2 °F 39.2 °F 100% 29.92 in 5.0 mi NW 13.8 mph 20.7 mph N/A   Overcast
7:55 AM 39.2 °F 30.2 °F 39.2 °F 100% 29.93 in 6.0 mi NW 17.3 mph 23.0 mph N/A   Overcast
8:15 AM 39.2 °F 31.2 °F 39.2 °F 100% 29.93 in 7.0 mi NW 13.8 mph - N/A   Overcast
8:35 AM 39.2 °F 30.5 °F 39.2 °F 100% 29.94 in 5.0 mi NW 16.1 mph 19.6 mph N/A   Overcast
8:55 AM 39.2 °F 31.2 °F 39.2 °F 100% 29.94 in 3.0 mi NW 13.8 mph 23.0 mph N/A   Overcast
9:15 AM 39.2 °F 31.2 °F 39.2 °F 100% 29.95 in 5.0 mi WNW 13.8 mph - N/A   Overcast
9:35 AM 41.0 °F 32.2 °F 41.0 °F 100% 29.95 in 6.0 mi NW 18.4 mph - N/A   Overcast
9:55 AM 41.0 °F 32.5 °F 41.0 °F 100% 29.96 in 7.0 mi NW 17.3 mph 20.7 mph N/A   Overcast
10:15 AM 41.0 °F 32.8 °F 41.0 °F 100% 29.96 in 7.0 mi NW 16.1 mph 20.7 mph N/A   Overcast
10:35 AM 41.0 °F 32.2 °F 39.2 °F 93% 29.96 in 8.0 mi WNW 18.4 mph 21.9 mph N/A   Overcast
10:55 AM 41.0 °F 31.9 °F 39.2 °F 93% 29.97 in 8.0 mi WNW 19.6 mph - N/A   Overcast
11:15 AM 42.8 °F 35.4 °F 39.2 °F 87% 29.97 in 8.0 mi NW 15.0 mph - N/A   Overcast
11:35 AM 42.8 °F 34.8 °F 39.2 °F 87% 29.97 in 9.0 mi WNW 17.3 mph 20.7 mph N/A   Overcast
11:55 AM 42.8 °F 34.8 °F 37.4 °F 81% 29.97 in 9.0 mi NW 17.3 mph - N/A   Overcast
12:15 PM 42.8 °F 35.4 °F 37.4 °F 81% 29.97 in 9.0 mi WNW 15.0 mph 21.9 mph N/A   Overcast
12:35 PM 44.6 °F 37.8 °F 37.4 °F 76% 29.96 in 10.0 mi NW 15.0 mph 20.7 mph N/A   Overcast
12:55 PM 46.4 °F 39.8 °F 37.4 °F 71% 29.96 in 9.0 mi WNW 16.1 mph - N/A   Overcast
1:15 PM 46.4 °F 40.1 °F 37.4 °F 71% 29.95 in 9.0 mi NW 15.0 mph 21.9 mph N/A   Overcast
1:35 PM 46.4 °F 39.5 °F 35.6 °F 66% 29.95 in 10.0 mi NW 17.3 mph 23.0 mph N/A   Overcast
1:55 PM 46.4 °F 39.5 °F 35.6 °F 66% 29.95 in 10.0 mi NW 17.3 mph 21.9 mph N/A   Overcast
2:15 PM 46.4 °F 40.1 °F 35.6 °F 66% 29.95 in 10.0 mi NW 15.0 mph - N/A   Overcast
2:35 PM 46.4 °F 41.1 °F 35.6 °F 66% 29.94 in 10.0 mi NW 11.5 mph 21.9 mph N/A   Overcast
2:55 PM 46.4 °F 40.4 °F 35.6 °F 66% 29.94 in 10.0 mi WNW 13.8 mph - N/A   Overcast
3:15 PM 46.4 °F 39.8 °F 35.6 °F 66% 29.95 in 10.0 mi NW 16.1 mph - N/A   Overcast
3:35 PM 46.4 °F 40.1 °F 35.6 °F 66% 29.95 in 10.0 mi NW 15.0 mph - N/A   Overcast
3:55 PM 44.6 °F 37.4 °F 37.4 °F 76% 29.95 in 10.0 mi NW 16.1 mph - N/A   Overcast
4:15 PM 44.6 °F 36.6 °F 37.4 °F 76% 29.95 in 9.0 mi NW 19.6 mph - N/A   Overcast
4:35 PM 44.6 °F 37.8 °F 37.4 °F 76% 29.95 in 9.0 mi NW 15.0 mph - N/A   Overcast
4:55 PM 44.6 °F 37.2 °F 37.4 °F 76% 29.95 in 9.0 mi NW 17.3 mph 21.9 mph N/A   Overcast
5:15 PM 44.6 °F 37.2 °F 37.4 °F 76% 29.95 in 9.0 mi NW 17.3 mph - N/A   Overcast
5:35 PM 44.6 °F 37.4 °F 37.4 °F 76% 29.95 in 9.0 mi NW 16.1 mph 23.0 mph N/A   Overcast
5:55 PM 42.8 °F 35.4 °F 37.4 °F 81% 29.96 in 8.0 mi NW 15.0 mph 21.9 mph N/A   Overcast
6:15 PM 42.8 °F 35.4 °F 37.4 °F 81% 29.96 in 9.0 mi NW 15.0 mph 19.6 mph N/A   Mostly Cloudy
6:35 PM 42.8 °F 36.2 °F 37.4 °F 81% 29.97 in 10.0 mi NW 12.7 mph - N/A   Mostly Cloudy
6:55 PM 42.8 °F 35.8 °F 35.6 °F 76% 29.97 in 10.0 mi NW 13.8 mph 19.6 mph N/A   Overcast
7:15 PM 42.8 °F 36.2 °F 35.6 °F 76% 29.97 in 10.0 mi NW 12.7 mph 19.6 mph N/A   Overcast
7:35 PM 42.8 °F 35.8 °F 35.6 °F 76% 29.98 in 10.0 mi NW 13.8 mph - N/A   Overcast
7:55 PM 42.8 °F 36.2 °F 35.6 °F 76% 29.99 in 10.0 mi NW 12.7 mph - N/A   Overcast
8:15 PM 42.8 °F 36.2 °F 35.6 °F 76% 29.99 in 10.0 mi WNW 12.7 mph - N/A   Overcast
8:35 PM 41.0 °F 34.3 °F 35.6 °F 81% 29.99 in 10.0 mi NW 11.5 mph - N/A   Overcast
8:55 PM 41.0 °F 33.9 °F 35.6 °F 81% 30.00 in 10.0 mi NW 12.7 mph - N/A   Mostly Cloudy
9:15 PM 41.0 °F 34.3 °F 35.6 °F 81% 30.00 in 10.0 mi NW 11.5 mph - N/A   Overcast
9:35 PM 41.0 °F 34.3 °F 35.6 °F 81% 30.01 in 10.0 mi WNW 11.5 mph - N/A   Overcast
9:55 PM 41.0 °F 34.7 °F 35.6 °F 81% 30.02 in 10.0 mi WNW 10.4 mph - N/A   Overcast
10:15 PM 41.0 °F 35.2 °F 35.6 °F 81% 30.02 in 10.0 mi WNW 9.2 mph - N/A   Mostly Cloudy
10:35 PM 41.0 °F 36.4 °F 35.6 °F 81% 30.02 in 10.0 mi NW 6.9 mph - N/A   Partly Cloudy
10:55 PM 39.2 °F 34.2 °F 35.6 °F 87% 30.02 in 10.0 mi NW 6.9 mph - N/A   Clear
11:15 PM 37.4 °F 32.1 °F 33.8 °F 87% 30.02 in 10.0 mi NW 6.9 mph - N/A   Clear
11:35 PM 37.4 °F 30.8 °F 33.8 °F 87% 30.02 in 10.0 mi NW 9.2 mph - N/A   Clear
11:55 PM 39.2 °F 33.0 °F 32.0 °F 75% 30.02 in 10.0 mi WNW 9.2 mph - N/A   Clear